sat.trackr.live / text

‹ back to catalog

YAOGAN-31 02C

NORAD 47536 · 2021-007E

PAYLOAD ACTIVE UNKNOWN

§ Identity

Operator
Country
PRC
Launch date
2021-01-29
Launch site
JSC
Launch vehicle
Mass (kg)
RCS (m²)

External: N2YO · Heavens-Above · Gunter

§ Orbital elements

Epoch: 2026-05-25T05:26:23.665056Z

Period
107.03 min
Inclination
63.4020°
Eccentricity
0.0174079
Mean motion
13.45445643 rev/d
Perigee alt
959.1 km
Apogee alt
1,219.1 km
Semi-major
7,467.2 km
B*
1.0332e-4
RAAN
201.1506°
Arg perigee
0.5721°
Mean anomaly
359.5473°
Rev number
26,112

§ Raw data

YAOGAN-31 02C1 47536U 21007E   26145.22666279 -.00000023  00000+0  10332-3 0  99902 47536  63.4020 201.1506 0174079   0.5721 359.5473 13.45445643261127

JSON: /api/v1/satellites/47536 · /tle

For live sub-satellite position, see the globe view (requires WebGL).

§ Visibility from observer

Set your observer location to see the next 7 days of passes ≥ 10°. The values pass through the URL so the page stays shareable.

No JS? Fill the form by hand. The geolocation button needs JavaScript.